Location: Laverne
(36.7100°N, 99.8930°W)
Time: 16:10:19
(UTC-05:00)

Daily predictions for brighter satellites

Satellite Brightness Start Highest point End
(mag) Time Altitude Azimuth Time Altitude Azimuth Time Altitude Azimuth
Meteor 2-3 Rocket 4.1 21:07:58 10° SSW 21:13:34 74° W 21:19:09 10° N
Envisat 4.4 21:10:23 10° ESE 21:14:09 22° ENE 21:17:56 10° NNE
CZ-3C R/B 4.2 20:16:19 10° SW 21:14:14 34° S 21:23:32 10° SE
Cosmos 2184 Rocket 4.0 21:08:29 10° S 21:14:31 63° E 21:20:38 10° NNE
H-2A R/B 3.7 21:13:38 10° ESE 21:16:28 17° ENE 21:19:16 10° NNE
Cosmos 1624 Rocket 4.3 21:13:47 10° SSW 21:19:03 79° WNW 21:24:24 10° NNE
Okean 1-7 4.2 21:16:58 10° NNW 21:21:05 45° W 21:25:13 10° SSW
Cosmos 1606 4.2 21:18:30 10° NNE 21:21:35 22° ENE 21:24:38 10° SE
NOSS 5 (C) 4.5 21:21:02 10° SSW 21:24:36 52° ESE 21:27:41 10° NE
Cosmos 1892 2.9 21:21:07 10° S 21:24:56 77° W 21:28:49 10° N
ALOS 2.5 21:22:44 10° S 21:27:23 74° WSW 21:32:05 10° NNW
BREEZE-M DEB (TANK) 4.2 21:26:47 10° WNW 21:28:24 15° NNW 21:29:46 10° NNE
ERS-1 Rocket 3.5 21:23:51 10° SE 21:28:35 43° ENE 21:33:20 10° N
Cosmos 1340 Rocket 4.5 21:26:27 10° SSW 21:30:10 38° WNW 21:33:58 10° N
Meteor 1-27 Rocket 4.3 21:27:32 10° N 21:32:42 38° ENE 21:37:47 10° SE
Cosmos 407 Rocket 3.8 21:28:07 10° N 21:33:19 55° ENE 21:38:31 10° SSE
H-2A R/B 3.3 21:34:30 10° S 21:38:07 57° W 21:41:48 10° NNW
Cosmos 1782 2.8 21:37:28 10° N 21:41:30 70° E 21:45:31 10° SSE
USA 186 2.8 21:39:03 10° S 21:42:03 46° W 21:45:13 10° NNW
Cosmos 1452 Rocket 3.5 21:38:05 10° S 21:43:16 65° ESE 21:48:30 10° NNE
Cosmos 2074 Rocket 4.4 21:38:10 10° SSW 21:44:25 71° W 21:50:41 10° N
Cosmos 1674 Rocket 3.5 21:40:34 10° N 21:45:01 78° E 21:49:26 10° S
Okean 2 Rocket 4.1 21:45:11 13° SE 21:48:13 26° E 21:51:54 10° NNE
Cosmos 1190 Rocket 4.0 21:43:50 10° NNW 21:49:04 84° WSW 21:54:15 10° SSE
ATLAS 5 CENTAUR R/B 3.1 21:46:02 10° NW 21:52:00 53° WSW 21:58:16 10° S
OAO 3 Rocket 3.8 21:50:04 10° SW 21:54:39 38° SSE 21:58:14 15° E
Cosmos 1184 Rocket 3.4 21:52:57 16° SSE 21:55:10 36° E 21:58:17 10° NNE
ISS -2.2 21:52:24 10° WSW 21:55:32 47° NW 21:58:42 10° NE
Cosmos 1939 Rocket 2.9 21:52:49 15° SSE 21:55:53 58° ENE 21:59:44 10° N
Atlas Centaur 2 2.4 21:53:31 10° WSW 21:56:30 24° S 21:57:58 18° SSE
Cosmos 1242 Rocket 4.1 21:54:13 10° NNE 21:57:01 20° ENE 21:58:03 18° E
YAOGAN 6 4.2 21:56:00 16° E 21:57:01 18° ENE 21:59:30 10° NNE
Cosmos 1408 2.7 21:55:09 11° S 21:58:36 52° E 22:02:09 10° NNE
Cosmos 1782 Rocket 4.0 21:54:44 11° SSE 21:58:44 44° E 22:02:59 10° NNE
Sich 1 Rocket 3.8 21:55:18 10° S 21:59:52 77° W 22:04:28 10° N
Nadezhda 3 Rocket 4.0 21:57:47 10° N 22:04:07 68° E 22:09:52 13° SSE
CENTAUR R/B 4.1 21:57:16 10° NW 22:04:43 43° WSW 22:12:25 10° S
Cosmos 1238 Rocket 2.9 22:02:04 10° N 22:05:23 47° E 22:07:25 24° SE
SPOT 5 3.4 22:04:31 19° SE 22:08:05 51° ENE 22:13:15 10° N
Cosmos 1825 2.1 22:05:51 10° S 22:09:39 78° E 22:13:28 10° N
Cosmos 1833 Rocket 4.2 22:10:50 10° N 22:15:02 21° ENE 22:17:28 16° E
Cosmos 1975 Rocket 3.3 22:11:53 10° N 22:16:07 50° E 22:18:01 29° SE
MetOp-A 4.4 22:13:07 23° SE 22:16:15 51° ENE 22:21:25 10° N
Cosmos 2278 Rocket 2.3 22:10:55 10° SSW 22:16:35 80° WNW 22:22:17 10° NNE
Cosmos 1844 Rocket 4.3 22:11:49 10° SW 22:17:02 37° WNW 22:22:15 10° N
DNEPR-1 R/B 4.5 22:12:07 10° NNW 22:17:07 41° NE 22:19:11 26° ESE
Cosmos 676 Rocket 4.1 22:14:44 10° NNW 22:19:56 74° WSW 22:23:43 19° S
Cosmos 1174 3.5 22:17:44 10° NW 22:20:47 57° WSW 22:21:43 36° S
COS B Rocket 3.2 22:19:18 10° N 22:23:15 76° W 22:25:27 22° S
Cosmos 1908 Rocket 4.4 22:19:07 10° SSW 22:23:24 52° W 22:27:44 10° N
Cosmos 1954 Rocket 4.0 22:18:39 10° NNW 22:23:53 89° W 22:27:03 25° SSE
Cosmos 1378 Rocket 3.6 22:22:23 10° N 22:26:42 73° W 22:29:29 21° S
Cosmos 2341 Rocket 4.1 22:22:19 10° S 22:28:38 83° W 22:34:56 10° N
BREEZE-M DEB (TANK) 3.6 22:24:48 10° NW 22:36:24 57° NNE 22:38:18 30° E
SL-8 Rocket 3.9 22:34:24 21° S 22:38:47 69° E 22:45:00 10° NNE
Cosmos 2082 Rocket 2.8 22:33:35 10° N 22:38:57 41° ENE 22:40:49 32° ESE
Cosmos 1741 Rocket 4.1 22:33:51 10° N 22:39:00 58° ENE 22:40:43 39° SE
Meteor 1-14 Rocket 4.2 22:36:23 26° SSE 22:39:34 63° E 22:45:06 10° NNE
GPS 2-05 Rocket1 2.8 22:36:32 10° W 22:40:15 76° S 22:40:33 69° SE
USA 245 3.2 22:42:27 52° ENE 22:42:29 52° ENE 22:46:21 10° N
Cosmos 1023 Rocket 4.4 22:38:15 10° NNW 22:43:23 89° WSW 22:45:25 38° SSE
Timation 2 Rocket 3.8 22:40:47 10° NNW 22:46:48 80° ENE 22:49:13 38° SSE
Intercosmos 25 3.1 22:47:33 44° SSW 22:48:31 72° W 22:51:42 10° N
Cosmos 1110 Rocket 4.4 22:50:53 40° ESE 22:50:53 40° ESE 22:55:43 10° NNE
H-2A R/B 3.3 22:49:42 19° SSW 22:52:13 35° W 22:56:07 10° NNW
Envisat 4.1 22:49:15 16° SSW 22:52:52 40° W 22:57:38 10° NNW
Cosmos 2297 3.8 22:47:15 10° SSW 22:52:56 80° WNW 22:58:43 10° NNE
Cosmos 2151 Rocket 3.5 22:53:44 58° SE 22:54:20 66° E 22:58:50 10° NNE
COSMOS 2487 3.8 22:53:27 10° NW 22:56:44 33° WSW 22:57:31 29° SW
SEDSat Delta rocket 4.3 22:54:42 10° WSW 22:56:52 24° SW 22:56:52 24° SW
NOAA 11 4.1 22:57:39 47° SE 22:59:16 74° ENE 23:04:47 10° N
CZ-4 R/B 3.6 22:57:30 10° NNE 23:02:09 71° ESE 23:02:41 64° SSE
OAO 1 Rocket 4.3 22:58:55 10° WSW 23:04:12 71° S 23:05:04 59° ESE
Cosmos 614 Rocket 3.8 23:00:34 10° NNW 23:05:40 86° WSW 23:06:40 58° S
Cosmos 864 Rocket 4.3 23:06:30 40° S 23:08:51 81° E 23:15:02 10° N
Okean 1 Rocket 4.4 23:15:49 29° NE 23:15:49 29° NE 23:18:30 10° NNE
CZ-4C R/B 4.0 23:17:11 47° NNE 23:17:11 47° NNE 23:20:26 10° N
Cosmos 1140 Rocket 4.4 23:13:15 10° NNW 23:18:03 40° WSW 23:19:37 32° SW
Landsat 7 3.7 23:19:26 70° ENE 23:19:26 70° ENE 23:24:11 10° N
Cosmos 2366 rocket 4.1 23:16:58 34° SSW 23:19:51 78° W 23:26:13 10° N
H-2A R/B 2.1 23:22:52 62° E 23:23:14 64° ENE 23:28:30 10° N
Cosmos 2369 Rocket 4.1 23:26:49 16° ENE 23:26:49 16° ENE 23:28:22 10° NE
SL-08 RB Rocket 3.9 23:27:36 63° WSW 23:27:46 64° W 23:32:23 10° NNW
CZ-4B R/B 4.3 23:23:13 10° N 23:27:54 45° WNW 23:30:09 26° SW
USA 234 3.1 23:22:20 10° NE 23:28:49 62° SE 23:30:12 51° S
ARGOS 3.5 23:28:01 47° SW 23:29:09 57° W 23:34:26 10° NNW
Timation 1 Rocket 4.4 23:29:58 37° SSW 23:32:27 78° WNW 23:38:29 10° NNE
ISS 0.3 23:32:16 10° NNW 23:32:38 10° NNW 23:33:00 10° NNW
CZ-3 Stage 3 4.2 22:04:46 10° W 23:34:11 65° SSW 23:37:00 46° SE
Terra 2.0 23:35:40 64° NNE 23:35:40 64° NNE 23:39:54 10° N
OAO 3 Rocket 4.2 23:33:02 10° WSW 23:36:04 37° WSW 23:36:04 37° WSW
Meteor 1-20 Rocket 4.3 23:43:06 59° SW 23:43:56 68° W 23:49:27 10° N
Spot 4 4.2 23:50:39 59° NNE 23:50:39 59° NNE 23:54:40 10° N
CARTOSAT-1 4.4 23:52:52 48° NW 23:52:52 48° NW 23:56:04 10° NNW
